GW0363 Weather Reports


time (UTC)temp
C
wind
direction
speed
KPH
gust
KPH
rain 1hr
cm
rain 24hr
cm
rain mn
cm
humidity
%
barometer
mb
20260503195500 22 29 6.4 9.7 0.00 0.00 0.00 43 1018.7
20260503194000 22 317 4.8 4.8 0.00 0.00 0.00 45 1018.9
20260503192500 22 9 6.4 9.7 0.00 0.00 0.00 44 1019.0
20260503190955 22 43 3.2 3.2 0.00 0.00 0.00 44 1018.7
20260503185452 21 12 1.6 3.2 0.00 0.00 0.00 45 1019.1
20260503183950 22 28 4.8 4.8 0.00 0.00 0.00 45 1019.2
20260503182449 21 13 4.8 8.0 0.00 0.00 0.00 50 1019.1
20260503180944 21 16 8.0 11.3 0.00 0.00 0.00 50 1019.4
20260503175443 21 215 4.8 4.8 0.00 0.00 0.00 47 1019.6
20260503173943 20 17 4.8 8.0 0.00 0.00 0.00 52 1019.6
20260503172440 19 32 4.8 8.0 0.00 0.00 0.00 53 1019.8
20260503170936 19 33 9.7 14.5 0.00 0.00 0.00 54 1019.7
20260503150912 16 52 0.0 0.0 0.00 0.00 0.00 62 1020.6
20260503130846 9 202 1.6 1.6 0.00 0.00 0.00 88 1020.4
20260503080807 11 223 3.2 3.2 0.00 0.00 0.00 79 1020.4
20260503072304 12 104 1.6 1.6 0.00 0.00 0.00 76 1020.4
20260503070757 12 203 1.6 1.6 0.00 0.00 0.00 76 1020.3
20260503053737 16 266 1.6 1.6 0.00 0.00 0.00 58 1019.8
20260503052235 17 12 1.6 1.6 0.00 0.00 0.00 53 1020.1
20260503050730 17 188 3.2 3.2 0.00 0.00 0.00 52 1020.0
20260503045228 17 186 4.8 4.8 0.00 0.00 0.00 57 1020.0
20260503043724 18 11 0.0 0.0 0.00 0.00 0.00 49 1019.6
20260503042220 18 187 1.6 3.2 0.00 0.00 0.00 50 1019.6
20260503040717 18 192 1.6 1.6 0.00 0.00 0.00 49 1019.5
20260503035215 20 178 3.2 3.2 0.00 0.00 0.00 44 1019.2
20260503033712 20 156 1.6 1.6 0.00 0.00 0.00 43 1019.3
20260503032212 21 186 0.0 1.6 0.00 0.00 0.00 44 1019.0
20260503030708 20 41 0.0 0.0 0.00 0.00 0.00 42 1019.1
20260503025205 21 28 0.0 1.6 0.00 0.00 0.00 41 1019.1
20260503023701 21 31 1.6 1.6 0.00 0.00 0.00 41 1018.9
20260503022159 22 350 0.0 1.6 0.00 0.00 0.00 36 1019.0
20260503020656 23 11 3.2 3.2 0.00 0.00 0.00 36 1018.9
20260503015153 23 34 3.2 3.2 0.00 0.00 0.00 35 1019.0
20260503013649 23 33 1.6 3.2 0.00 0.00 0.00 35 1019.1
20260503012146 24 33 0.0 0.0 0.00 0.00 0.00 35 1019.2
20260503010641 24 18 4.8 4.8 0.00 0.00 0.00 34 1019.3
20260503005139 24 5 6.4 8.0 0.00 0.00 0.00 32 1019.5
20260503003636 23 6 4.8 4.8 0.00 0.00 0.00 33 1019.3
20260503002133 23 56 6.4 9.7 0.00 0.00 0.00 33 1019.3
20260503000629 24 309 3.2 3.2 0.00 0.00 0.00 34 1019.7
20260502235126 24 338 3.2 4.8 0.00 0.00 0.00 35 1019.6
20260502233621 25 31 3.2 4.8 0.00 0.00 0.00 35 1020.0
20260502232117 25 29 3.2 4.8 0.00 0.00 0.00 35 1020.1
20260502230615 24 58 4.8 8.0 0.00 0.00 0.00 41 1020.4
20260502225112 24 339 6.4 9.7 0.00 0.00 0.00 37 1020.7
20260502223609 23 340 3.2 3.2 0.00 0.00 0.00 38 1021.0
20260502222106 23 40 6.4 12.9 0.00 0.00 0.00 46 1021.2
20260502220601 22 17 6.4 8.0 0.00 0.00 0.00 48 1021.4
20260502215058 22 4 1.6 1.6 0.00 0.00 0.00 47 1021.3
20260502213555 22 265 6.4 8.0 0.00 0.00 0.00 48 1021.5
20260502212055 21 34 6.4 9.7 0.00 0.00 0.00 52 1021.6
20260502210550 21 24 8.0 9.7 0.00 0.00 0.00 51 1021.7
20260502205047 22 331 6.4 8.0 0.00 0.00 0.00 52 1021.9
20260502203544 22 24 1.6 3.2 0.00 0.00 0.00 51 1021.9
20260502202042 21 23 3.2 4.8 0.00 0.00 0.00 49 1022.0